Location: Shenandoah County Park
(38.9356°N, 78.4524°W)
Time: 05:47:43
(UTC-04:00)

Explorer 11/Cluster Stage 4 - Pass Details

Date: 24 February 2024
Orbit: 465 x 1220 km, 28.8° (Epoch: 12 April)

Event Time Altitude Azimuth Distance (km) Brightness Sun altitude
Rises 03:19:15 0° 251° (WSW) 4,057 - -41.7°
Reaches altitude 10° 03:22:29 10° 243° (WSW) 3,025 - -41.1°
Maximum altitude 03:29:09 35° 181° (S) 1,584 - -40.0°
Exits shadow 03:33:24 17° 125° (SE) 2,172 9.0 -39.2°
Drops below altitude 10° 03:34:51 10° 117° (ESE) 2,581 9.6 -38.9°
Sets 03:37:25 0° 109° (ESE) 3,398 10.4 -38.5°
